Wind_Gust
10 10 12 12 11 14 9 11 12 8 8 10 7 7 9 11 12 12 12 12 12 10 10 11 11 11 8 6 6 5 6 7 8 8 8 7 7 8 7 9 10 7 8 8 8 8 8 7 7 5 4 6 4 2 3 4 5 6 9 10 8 8 10 8 10 8 6 8 15 15 13 14 12 12 13 10 8 7 8 6 7 6 5 4 4
8 11 10 14 16 14 12 13 13 8 9 9 9 9 11 13 12 13 13 11 12 11 10 10 11 10 8 6 6 5 6 8 7 7 7 7 7 8 6 8 8 9 8 9 10 9 8 8 6 5 4 6 2 2 4 3 6 6 10 11 10 9 6 9 7 8 9 7 9 10 15 13 13 13 16 13 10 8 9 8 6 5 6 6 7
6 6 9 10 14 18 12 15 10 9 11 10 10 11 11 12 12 14 13 11 10 10 11 10 11 10 8 6 6 6 7 8 4 7 9 8 6 5 8 10 8 8 7 10 10 10 9 8 6 6 4 3 3 4 6 3 4 8 8 9 11 8 5 9 10 8 13 9 10 13 13 12 16 15 12 15 14 14 12 10 11 9 7 8 8
8 8 9 7 8 7 6 9 11 9 11 10 12 11 14 11 11 13 11 10 9 7 11 9 10 10 9 8 7 5 6 5 6 8 7 8 11 9 8 8 6 6 7 9 10 10 9 8 7 6 5 3 3 6 3 3 3 8 9 9 7 6 5 7 10 11 9 13 10 16 14 15 13 13 14 14 16 15 15 14 11 12 10 12 11
12 10 9 13 7 9 11 9 9 14 10 13 16 15 11 11 10 11 11 8 7 11 10 8 9 10 11 8 7 6 6 6 7 5 5 8 10 9 8 7 7 8 7 8 9 10 9 9 8 6 4 4 6 4 2 4 7 9 12 12 11 10 8 8 8 9 10 11 11 9 13 12 14 15 16 17 14 12 13 16 17 17 14 14 15
15 16 13 15 16 14 14 12 8 6 10 14 13 11 13 11 9 8 9 9 9 11 9 6 9 9 9 9 6 6 7 7 7 6 6 6 7 7 7 9 10 11 8 7 9 9 9 7 6 5 4 7 3 3 6 6 6 6 7 9 9 8 10 7 7 7 8 10 10 9 6 12 9 16 17 17 19 14 13 14 14 16 18 13 17
11 14 16 17 15 15 10 7 17 11 12 13 12 11 11 10 9 9 9 9 9 9 7 9 9 8 8 9 8 9 11 11 8 6 6 6 7 10 11 10 10 12 9 7 9 9 9 7 5 4 5 6 9 7 6 7 8 7 6 11 6 9 8 6 9 10 11 9 5 7 13 11 12 16 17 17 19 20 20 15 15 16 16 18 18
12 16 18 14 10 13 8 10 9 13 11 13 12 11 11 11 10 9 10 10 7 7 7 11 11 8 12 17 17 16 15 14 14 12 6 8 7 7 8 7 7 8 9 9 9 10 8 5 5 8 8 7 8 6 6 8 8 9 9 7 8 7 5 3 6 7 6 5 4 4 4 10 5 3 16 12 9 7 12 17 21 18 19 20 21
15 14 15 15 13 12 13 14 10 7 13 12 13 11 10 9 8 9 9 8 7 7 8 10 16 18 20 18 17 17 18 15 13 12 9 11 6 7 7 8 10 9 7 9 10 12 10 9 8 9 12 13 14 12 10 8 10 11 8 8 8 9 7 9 9 9 9 9 3 3 3 2 3 8 10 11 15 21 18 12 16 18 20 16 19
16 14 15 13 13 13 12 11 15 10 9 12 11 10 9 9 10 9 8 6 6 8 8 15 17 19 18 17 17 17 15 12 14 13 10 9 10 10 6 8 7 9 13 13 11 11 11 10 11 15 15 14 14 15 15 15 13 11 8 9 8 8 8 8 9 7 7 7 3 5 5 4 4 4 6 8 7 3 3 3 8 9 5 13 13
13 14 15 14 13 12 13 9 8 10 9 13 10 10 11 11 10 10 12 13 16 16 20 17 16 17 16 17 17 16 13 13 11 10 14 15 11 11 11 10 5 8 11 13 11 10 8 9 9 11 13 11 12 12 13 13 13 13 12 11 8 9 8 10 7 7 5 6 1 3 3 4 7 8 6 9 11 13 9 5 7 4 7 10 17
13 10 16 16 17 18 15 14 14 14 9 9 11 13 15 15 17 15 16 17 17 19 19 16 15 15 16 17 17 14 12 12 10 12 13 15 10 9 10 11 12 9 10 13 13 12 11 13 13 13 15 12 8 7 9 9 10 10 10 10 11 12 9 7 5 5 3 3 3 2 2 5 6 6 7 5 8 7 10 10 10 7 7 8 9
15 16 16 17 17 18 16 19 19 18 14 12 12 15 16 17 19 19 16 14 17 18 15 16 15 13 16 18 17 14 13 13 14 12 12 13 11 8 9 10 13 13 15 15 14 14 13 14 13 15 17 22 18 13 7 5 5 7 8 9 10 9 9 9 6 5 8 4 3 3 3 2 2 5 5 5 3 4 3 4 7 11 11 12 15
15 15 16 15 15 16 18 20 19 15 14 12 13 16 18 17 16 16 17 17 18 16 16 16 14 14 14 15 14 13 13 14 14 12 10 12 10 7 8 11 14 16 15 15 15 14 12 12 11 11 10 16 16 18 13 10 8 8 9 8 7 7 7 6 6 4 2 1 3 4 4 2 7 6 4 2 4 5 3 3 2 3 4 7 7
15 13 14 12 12 16 19 19 18 15 17 12 15 17 17 17 18 17 19 17 16 16 14 15 13 12 12 12 14 14 15 16 15 15 15 14 13 7 11 12 15 15 13 12 12 12 11 11 10 10 11 15 14 13 10 9 6 5 6 6 6 5 4 2 1 1 2 3 4 6 6 4 4 2 1 2 2 6 9 8 11 11 11 6 7
19 16 16 14 13 15 17 18 17 17 16 15 15 18 16 17 18 16 19 17 15 16 15 14 14 14 13 14 15 14 14 18 18 18 17 14 11 11 11 14 15 14 13 11 10 8 8 10 12 13 13 13 8 10 8 7 6 6 6 5 5 6 7 3 4 5 6 7 6 5 4 4 4 5 4 5 3 7 8 12 12 13 11 10 14
20 18 16 15 15 15 14 16 16 16 15 17 15 16 17 15 12 13 17 15 16 18 16 14 13 14 15 15 15 14 14 16 16 14 12 9 6 8 9 12 13 14 13 12 13 13 12 11 14 13 12 11 9 8 8 6 9 9 4 4 6 6 10 10 5 5 7 7 7 6 7 7 8 9 9 10 8 6 7 11 14 12 13 13 13
18 18 17 15 15 15 15 15 16 15 14 14 14 13 14 12 12 11 16 16 17 14 14 16 15 15 16 16 14 16 14 15 16 14 12 10 8 10 11 14 14 15 14 12 13 15 18 19 15 13 12 9 8 9 12 8 9 6 5 3 6 9 10 10 12 11 4 5 8 9 9 10 11 11 11 11 8 4 10 11 8 3 10 10 15
19 18 16 15 15 15 15 15 15 15 16 14 12 14 15 14 12 14 15 16 15 12 12 16 15 15 14 14 12 16 14 14 15 15 17 16 14 11 12 14 14 12 14 14 13 14 14 13 15 12 9 7 8 9 10 8 8 6 4 4 5 4 4 9 11 11 11 11 9 5 6 7 9 9 10 11 10 8 10 10 6 4 7 8 8
15 15 16 16 14 15 13 14 13 13 14 14 14 13 12 14 14 15 14 15 15 14 14 15 15 13 11 12 14 13 15 14 15 17 18 18 16 16 14 16 14 11 12 14 14 12 11 10 9 8 8 7 6 7 8 8 6 3 5 4 5 6 6 10 11 10 11 8 9 7 8 8 4 4 4 5 8 7 10 10 7 6 3 2 3
13 15 15 16 16 15 12 13 14 13 12 12 12 13 12 14 14 16 15 14 15 14 14 14 15 11 11 11 13 12 12 13 14 18 19 19 18 15 16 15 12 13 12 12 10 10 10 9 6 5 6 6 7 6 6 5 4 2 2 2 2 5 5 8 11 9 11 11 10 8 8 8 7 6 7 7 7 7 9 9 8 7 7 6 5
16 17 16 15 14 15 15 14 13 12 10 9 10 11 10 12 14 14 14 14 14 14 12 12 14 12 10 11 12 12 10 12 12 15 17 18 19 19 17 13 10 11 14 12 9 9 7 5 6 5 6 8 7 6 5 5 6 3 3 3 3 5 9 8 10 10 10 10 11 12 11 9 9 9 10 12 12 12 11 10 10 12 12 10 9
18 18 17 16 17 19 19 20 19 17 17 15 13 12 11 9 10 12 13 12 13 13 12 12 14 14 12 11 11 12 11 13 14 14 15 17 16 17 16 14 14 13 12 11 8 6 6 6 5 7 8 7 6 6 4 4 2 2 4 3 2 6 7 8 8 9 10 11 12 13 14 14 13 10 6 9 8 10 11 11 11 13 14 15 14
16 18 15 15 17 19 19 19 18 18 17 17 17 18 17 17 18 14 6 10 13 12 11 11 12 13 14 12 11 11 10 11 12 16 16 18 18 18 17 16 14 11 12 10 7 7 9 8 8 9 8 9 9 8 7 5 6 5 3 2 3 5 7 9 9 9 9 13 15 14 14 13 12 11 4 4 7 8 10 10 12 12 13 12 12
16 17 17 17 17 18 18 19 19 18 18 18 18 17 16 15 15 13 14 14 9 7 7 10 13 11 11 12 11 11 12 14 14 16 18 17 17 17 17 17 15 11 11 8 7 5 5 7 8 8 7 8 8 5 5 6 9 5 4 5 5 5 11 14 13 13 15 13 13 13 14 13 9 9 7 5 5 8 9 8 8 9 10 11 11
12 13 14 16 16 18 18 18 18 18 17 17 17 16 15 14 15 15 16 15 14 15 15 14 11 11 11 11 12 11 11 11 12 12 11 11 11 14 15 16 14 13 11 12 12 14 15 14 13 12 10 9 10 10 11 12 12 12 9 8 12 14 12 13 13 13 11 9 10 11 9 11 14 12 12 12 14 10 5 4 7 8 8 9 12
11 10 10 11 13 16 17 17 17 17 17 16 16 16 16 14 15 16 14 14 14 15 16 15 15 15 15 13 11 11 11 12 11 10 10 10 10 10 13 13 11 11 13 13 12 13 14 12 12 11 10 12 10 7 9 11 16 16 16 15 14 13 12 12 11 11 9 10 9 10 7 7 9 15 14 14 14 13 11 6 8 7 8 8 12
15 13 13 11 11 13 15 12 15 16 17 17 17 16 15 15 16 16 14 11 12 13 13 14 13 12 12 10 10 11 9 8 9 10 11 11 11 10 9 10 11 10 11 12 11 10 10 8 15 19 19 20 18 16 15 14 14 14 15 12 11 10 9 8 9 11 9 7 7 6 8 11 12 10 11 13 12 13 12 12 10 11 10 7 9
12 13 13 12 11 11 12 11 12 13 14 15 16 13 11 11 12 11 9 7 7 7 13 12 10 9 10 9 11 11 8 9 6 3 4 6 8 9 11 11 11 10 10 12 12 9 15 22 20 20 19 17 17 17 16 16 15 14 14 12 10 10 11 12 13 12 9 10 12 10 9 10 11 10 10 14 14 13 12 12 12 11 11 13 13
8 9 9 9 9 9 10 11 10 11 11 11 12 15 14 15 11 10 10 9 13 12 9 10 6 7 14 10 6 10 8 2 3 4 4 3 3 4 4 6 6 7 10 11 5 17 18 18 16 17 17 17 17 16 14 14 14 15 15 10 13 12 11 9 9 8 9 11 9 11 10 9 11 11 11 10 9 11 11 9 9 8 11 9 10
7 8 9 8 8 8 9 10 10 10 9 10 12 12 10 12 12 13 10 7 9 10 11 11 12 10 11 10 7 8 9 5 2 5 4 3 2 2 2 4 5 6 7 8 16 18 17 18 15 15 14 15 15 13 12 14 13 12 12 11 14 12 9 9 6 6 9 10 10 9 8 10 9 9 10 9 9 9 10 9 9 11 10 8 9
7 5 5 7 5 7 8 9 9 11 9 8 9 8 9 10 10 7 8 9 10 10 10 11 11 11 10 7 6 3 4 3 3 4 4 2 2 2 3 5 5 4 5 4 18 15 15 14 14 14 13 15 12 11 12 12 11 11 11 14 12 9 9 8 5 9 9 9 9 9 9 9 9 9 9 9 8 10 10 10 10 9 8 7 7
8 9 13 13 12 13 13 10 7 11 8 8 9 9 9 8 9 6 7 5 5 6 8 8 8 7 8 8 7 5 3 3 5 7 11 11 12 11 8 9 8 7 6 16 18 14 14 13 13 12 14 13 10 11 10 11 11 12 13 11 10 10 10 7 4 9 9 9 9 8 7 6 7 9 8 7 8 8 7 8 8 8 8 9 9
9 10 8 10 13 12 12 13 12 8 10 9 10 10 11 10 8 7 8 7 7 5 4 5 4 4 4 5 4 2 3 7 10 10 11 11 11 10 10 14 10 8 14 17 16 14 12 14 12 12 12 11 11 11 11 11 11 11 12 11 10 11 11 9 10 8 9 8 7 5 6 8 6 8 7 8 6 7 8 7 7 7 8 6 5
11 11 14 10 11 11 10 10 9 11 9 6 3 7 11 14 12 10 7 8 9 8 5 7 6 4 5 5 6 7 9 8 8 8 9 11 10 11 15 21 20 16 17 15 15 15 14 14 14 12 10 11 10 10 12 11 12 12 11 10 10 12 12 12 10 10 10 10 10 9 7 8 7 7 7 7 6 6 3 4 4 4 3 3 4
6 7 8 10 7 5 7 8 9 7 7 7 8 5 6 12 11 10 8 4 7 8 5 3 3 4 4 3 5 4 5 8 12 15 18 17 15 15 18 13 15 14 13 13 13 12 12 10 11 10 10 10 10 10 10 11 10 10 9 10 10 10 10 10 9 9 7 8 7 7 8 8 6 5 4 4 3 3 3 2 2 2 1 2 3
7 7 9 9 8 4 6 10 11 12 8 5 4 5 5 7 10 13 12 11 8 7 8 7 5 4 4 2 3 8 13 13 14 18 18 17 16 16 13 13 13 13 12 12 13 12 13 10 9 10 10 10 10 8 10 10 10 9 8 9 8 9 9 8 8 6 8 8 7 7 6 6 6 5 5 5 6 5 5 4 3 3 3 4 4
4 4 5 8 8 9 10 9 10 9 12 8 6 6 7 7 10 10 11 10 8 11 10 5 6 4 3 3 7 7 9 11 17 16 15 14 15 13 12 12 12 13 12 11 12 12 12 12 10 9 10 11 9 10 9 10 9 9 8 7 8 8 8 10 8 8 7 7 7 7 7 7 6 7 6 4 3 4 7 7 7 8 8 7 3
4 3 5 8 6 9 8 8 10 12 13 13 11 11 10 10 10 11 10 11 11 8 6 7 4 3 4 5 10 8 12 13 12 10 10 10 12 13 14 14 14 13 12 11 11 12 12 11 10 10 8 8 9 8 9 8 7 7 7 6 8 9 10 8 8 7 6 6 6 4 5 5 6 5 3 4 6 6 7 6 7 8 10 9 7
2 5 2 4 5 4 6 7 10 10 8 11 12 11 11 9 4 8 11 13 12 11 9 9 7 3 2 4 9 12 14 10 11 9 8 11 13 13 14 13 13 13 13 12 11 10 11 10 9 10 8 6 8 7 8 7 8 6 5 7 8 8 8 7 7 8 7 7 5 6 5 6 6 6 6 6 7 7 5 7 7 7 7 5 9
6 5 4 3 3 7 9 7 5 4 6 7 8 8 9 11 6 7 8 9 11 10 9 6 6 4 5 9 8 9 15 11 10 9 8 11 11 12 13 12 11 11 10 10 10 10 9 9 8 8 8 9 7 7 7 7 7 7 8 6 7 7 6 6 6 5 5 6 6 8 9 8 7 5 7 6 6 7 6 4 6 8 8 6 8
5 5 1 3 5 10 9 7 5 3 5 6 8 9 8 9 8 7 10 9 11 11 8 5 2 2 5 11 7 8 11 11 10 10 12 13 12 11 11 11 11 10 10 8 9 10 9 8 8 8 7 8 7 8 7 5 5 6 4 5 6 9 10 11 11 11 10 8 7 9 10 9 9 4 2 5 6 6 6 7 8 9 9 8 6
7 2 4 3 8 12 10 8 4 5 5 5 4 7 8 7 10 6 9 11 8 9 8 5 4 4 4 6 10 8 11 10 8 11 12 12 12 11 11 11 11 10 9 9 6 9 10 9 9 8 9 9 5 5 8 8 7 7 8 10 11 10 9 9 11 12 11 10 10 10 9 11 9 6 2 2 4 6 4 5 8 7 6 6 5
8 7 5 5 9 10 10 8 7 4 3 2 1 3 6 5 7 6 2 7 6 7 8 5 3 1 2 5 9 12 13 12 12 12 12 12 11 11 11 10 10 9 10 9 9 8 10 9 9 8 8 9 9 9 11 11 11 10 9 9 8 9 9 9 9 10 11 10 10 10 10 10 10 10 7 8 9 8 7 6 6 6 4 5 7
8 6 7 3 7 10 10 8 10 8 4 3 2 4 8 8 7 6 5 6 8 11 8 5 3 3 3 8 11 11 10 11 11 12 11 11 10 10 8 9 9 9 7 9 7 8 8 9 9 7 9 10 12 12 12 11 11 10 8 9 8 8 7 6 6 7 7 7 9 10 11 9 8 9 9 9 9 8 7 7 8 6 6 5 6
8 8 6 4 6 11 10 9 8 9 10 6 4 5 5 4 4 5 4 5 7 9 10 9 6 4 10 11 14 13 11 11 11 11 11 10 10 9 10 11 10 9 8 8 8 7 8 9 8 9 10 9 10 10 10 10 11 10 9 8 7 5 3 5 5 6 8 7 8 8 9 8 6 5 5 4 4 4 4 4 5 5 5 5 7
6 8 7 7 9 9 11 12 11 10 9 11 9 9 6 4 2 5 5 3 1 5 9 7 7 11 11 12 12 12 12 11 11 11 10 10 8 9 9 9 11 10 8 8 6 8 7 8 7 9 9 8 9 9 10 10 9 8 8 7 5 6 7 6 6 5 5 5 5 7 8 8 5 6 9 8 9 9 6 4 2 4 5 6 8
6 6 8 6 9 4 9 11 14 10 10 9 11 10 6 4 4 3 2 2 4 2 3 4 8 9 11 12 11 11 10 11 12 11 11 10 9 8 9 8 9 10 9 8 6 7 7 7 8 9 10 9 9 9 8 8 7 7 7 7 6 5 8 7 6 6 6 6 5 6 7 6 7 7 8 7 8 10 10 10 7 8 7 8 9
5 8 8 7 5 3 8 9 8 10 11 12 11 7 8 10 8 5 7 6 6 4 9 10 7 10 11 11 12 11 8 9 12 12 10 11 8 7 7 8 8 9 10 9 7 6 6 8 9 10 10 9 9 8 8 6 6 5 5 4 6 8 8 8 6 8 9 8 7 7 6 7 8 8 9 8 8 7 6 6 7 7 8 7 9
8 8 6 4 3 4 3 8 10 8 7 8 10 8 10 11 6 6 9 9 8 10 7 10 13 11 10 10 11 10 11 13 14 13 11 11 10 8 8 7 8 8 9 9 8 7 7 6 8 9 9 8 8 8 6 5 4 3 3 4 6 8 9 10 8 9 9 6 7 7 5 5 6 6 7 7 7 8 8 6 6 8 7 9 9
7 7 5 3 4 4 6 7 6 7 12 13 11 9 10 9 8 9 8 8 11 12 11 8 11 11 10 11 12 12 12 14 15 15 13 12 10 10 9 8 8 7 7 9 10 9 7 7 9 9 8 8 8 7 5 5 4 3 3 5 6 8 9 9 10 10 11 8 6 6 5 7 6 8 8 9 8 7 9 8 8 7 7 6 7
Wind_Speed
5 6 7 7 8 9 5 6 8 6 4 6 4 4 4 7 7 7 7 7 7 6 7 7 7 6 5 4 4 4 4 4 5 5 4 4 4 5 4 6 6 5 5 5 4 5 5 4 4 4 3 4 3 1 2 3 4 5 5 5 4 5 6 4 6 5 2 2 7 7 7 8 5 5 7 5 4 4 5 3 4 3 2 2 2
2 1 5 9 10 9 9 9 8 5 6 6 6 5 6 7 7 8 8 7 7 7 7 6 7 6 5 4 4 4 4 5 4 4 4 4 4 4 4 5 5 6 5 5 5 4 5 5 4 4 3 3 2 2 3 2 2 4 6 7 6 6 4 4 3 4 5 3 3 4 7 6 6 6 9 8 5 5 5 4 3 3 3 3 3
2 3 1 1 5 9 5 9 7 6 7 6 6 6 6 5 7 8 8 7 6 6 6 7 7 6 5 4 4 4 5 4 3 5 6 5 4 3 5 6 5 5 5 6 6 5 5 5 4 4 3 2 1 2 1 1 3 5 5 5 6 4 3 6 5 4 8 5 5 7 6 5 7 8 7 8 8 8 7 6 6 5 4 4 5
5 4 6 2 0 2 3 3 6 6 7 7 8 8 8 6 6 7 6 6 6 4 7 6 6 6 5 5 4 4 4 4 4 5 5 5 6 5 5 5 4 4 5 6 7 6 6 5 4 4 3 2 2 3 2 1 2 5 4 4 4 4 3 5 6 6 4 7 5 8 7 8 4 7 7 8 9 8 8 6 6 6 5 6 6
6 6 6 9 5 4 5 5 5 7 5 7 10 10 6 7 6 6 6 5 5 6 6 5 6 6 6 5 4 4 4 4 5 4 4 5 6 5 5 4 4 4 4 6 6 6 5 6 5 4 3 2 3 2 1 3 4 6 7 6 6 6 4 5 5 5 6 7 5 4 7 6 6 7 8 9 6 6 5 8 9 9 8 8 7
7 7 6 9 9 8 6 5 5 1 4 9 9 5 7 7 6 5 5 5 6 7 6 4 6 6 6 5 4 4 4 4 5 4 4 4 4 4 4 5 6 3 5 4 5 5 5 4 4 3 3 4 2 2 4 4 4 4 5 5 5 5 6 4 4 4 5 6 6 4 4 5 4 5 9 9 9 7 6 6 6 8 8 7 8
3 8 8 8 8 6 5 4 9 6 4 8 7 5 6 6 6 5 5 5 6 6 5 6 5 5 5 4 4 5 7 7 4 3 4 4 5 6 6 6 6 4 4 5 5 5 4 4 3 2 3 4 5 4 4 5 5 4 4 6 4 6 5 4 6 6 6 5 3 4 7 5 6 8 7 10 10 10 10 7 7 7 7 9 9
5 8 8 6 6 8 4 5 4 3 7 8 8 7 6 7 6 5 6 5 5 5 5 7 6 4 8 10 8 8 8 8 7 6 4 4 4 5 5 4 5 5 5 4 5 4 4 3 3 3 5 4 5 4 4 5 5 6 5 4 5 4 3 3 4 4 4 2 2 2 2 5 0 1 4 4 4 3 5 7 11 9 9 10 11
9 8 9 9 6 5 6 7 6 1 4 8 8 7 6 6 5 6 6 5 4 4 5 7 10 10 9 10 10 9 9 7 6 5 4 5 4 4 4 5 6 5 4 5 5 5 5 5 5 5 7 9 12 10 8 6 6 6 4 5 5 5 4 5 5 6 5 5 1 1 2 1 0 5 6 5 7 10 7 5 7 9 9 8 10
7 7 9 8 6 6 7 7 9 4 1 7 6 6 6 5 5 6 5 4 4 4 6 10 10 10 10 10 10 9 7 5 7 8 5 5 5 5 3 4 5 6 8 7 6 6 6 6 7 12 12 12 11 13 13 13 11 7 5 5 5 5 4 5 6 4 5 4 2 2 2 2 1 1 3 5 4 0 1 3 4 5 2 5 6
6 7 8 8 6 6 8 5 4 6 6 7 5 6 6 6 5 6 8 8 9 10 12 10 9 9 9 10 10 8 6 5 8 7 10 11 7 6 6 5 3 5 7 8 7 6 5 6 5 8 9 9 8 10 11 12 11 11 10 8 6 4 5 6 4 4 3 4 0 1 1 3 4 5 4 4 6 6 5 2 3 2 2 4 6
7 5 8 8 8 9 8 8 6 6 4 4 7 8 7 9 10 9 9 10 10 11 11 9 9 9 9 10 10 7 6 8 8 9 10 10 7 5 6 6 6 6 6 8 7 7 7 8 8 7 8 8 4 4 7 7 8 8 8 9 10 10 7 5 3 3 2 2 2 0 1 2 3 3 3 1 4 4 5 7 6 5 3 4 4
7 9 7 9 9 9 10 10 7 8 6 3 7 9 9 10 11 11 10 8 10 11 9 10 9 8 9 11 9 7 7 9 9 9 9 10 9 6 6 6 8 8 8 8 7 6 6 8 7 6 5 12 9 7 3 3 4 6 8 9 9 9 8 8 6 2 4 2 2 2 2 1 1 2 3 2 1 2 1 2 4 6 6 6 7
8 8 8 8 8 9 10 11 10 8 7 5 7 10 11 10 9 10 10 10 10 10 10 10 8 9 8 9 8 7 7 9 10 9 7 9 8 6 5 7 9 9 8 7 7 7 6 6 6 5 6 8 9 9 8 6 5 4 4 4 4 5 6 6 6 3 1 1 1 2 2 1 3 3 2 1 3 3 1 1 1 1 1 4 4
9 8 7 6 6 9 11 11 10 9 8 7 8 9 10 10 10 10 10 10 9 9 8 9 8 7 7 7 8 8 6 10 11 12 11 10 7 6 7 7 8 8 7 6 6 6 6 6 5 6 6 6 7 6 5 5 4 3 4 4 3 3 2 1 0 0 1 1 2 3 4 3 3 1 0 1 2 2 4 3 6 6 5 3 5
11 10 9 7 5 6 10 11 10 11 10 8 9 11 9 9 10 9 11 9 9 9 9 8 8 8 7 8 8 8 7 13 12 12 12 10 8 6 7 8 8 7 7 6 6 5 4 5 7 8 8 8 5 6 2 4 2 3 3 3 3 4 3 1 3 3 3 3 3 3 3 1 2 2 2 3 1 2 2 5 6 7 6 6 7
12 11 9 8 7 7 7 9 10 10 9 10 8 10 10 9 7 7 10 8 9 9 9 8 7 8 9 9 9 8 8 12 13 12 9 8 5 5 6 7 7 8 8 7 7 7 7 6 7 7 7 5 5 7 7 4 4 3 3 3 4 4 6 5 4 3 5 6 7 6 6 7 7 8 8 9 6 3 3 2 6 6 8 7 7
11 11 10 9 9 9 9 8 9 8 8 9 8 7 8 7 6 6 9 9 9 8 8 9 9 8 10 10 8 9 8 11 14 12 11 10 7 6 6 8 8 8 8 7 7 8 10 12 9 8 7 5 6 8 8 4 5 3 2 2 3 5 5 5 5 4 3 4 6 8 7 8 8 9 9 9 6 4 5 6 4 1 5 5 6
11 11 9 8 9 8 8 9 9 9 10 8 7 8 9 8 7 8 8 9 8 7 7 9 8 8 8 8 10 10 8 10 13 13 14 12 9 6 7 7 8 7 7 7 7 7 7 9 11 8 6 4 6 8 9 5 4 3 2 2 2 2 3 5 6 6 7 7 6 3 4 5 5 5 6 8 8 6 6 6 4 2 3 3 3
9 9 10 9 9 9 8 9 8 8 9 8 8 7 7 8 8 9 8 8 8 8 8 8 9 7 6 7 7 8 9 8 10 14 14 15 13 9 6 8 7 6 6 7 8 7 6 5 6 7 7 6 5 6 7 7 4 2 3 2 3 4 3 6 6 5 6 4 5 5 5 5 2 2 3 3 4 4 4 3 3 3 2 1 0
8 9 9 9 10 9 7 8 9 8 7 7 7 7 7 8 7 9 9 8 8 8 8 7 8 7 6 7 8 8 7 8 10 14 15 15 15 12 8 8 6 7 7 7 6 6 5 4 3 3 5 5 4 4 4 4 4 2 2 1 1 2 3 4 7 7 5 6 5 5 5 5 4 4 3 3 4 3 4 5 5 3 4 3 3
10 11 10 9 8 9 10 9 8 7 5 5 5 6 6 7 7 7 7 8 9 8 7 7 8 7 6 7 7 8 7 9 8 11 13 15 16 16 10 8 6 6 7 6 5 5 4 3 3 3 4 5 4 6 5 4 4 2 2 2 3 4 5 4 4 5 6 6 6 7 6 6 6 5 6 7 7 7 6 6 6 7 7 6 5
10 11 10 10 11 12 12 13 11 9 9 9 8 8 7 6 4 5 8 7 8 8 7 7 8 8 7 6 6 7 7 8 11 10 13 14 14 14 14 10 11 8 7 6 4 3 2 2 2 6 7 7 6 6 4 3 1 0 1 1 2 5 4 3 4 5 6 7 7 8 8 8 7 6 4 5 4 5 6 6 6 7 7 7 8
10 11 9 9 10 11 10 11 11 10 10 10 10 11 10 10 10 7 4 4 6 7 6 6 7 8 8 7 6 6 6 6 9 13 11 15 15 15 14 13 10 7 7 5 4 4 5 5 5 7 7 7 7 6 5 5 3 3 1 1 3 3 4 5 6 6 6 8 8 7 7 7 6 6 3 2 4 5 6 5 5 5 7 7 7
8 9 8 9 9 9 10 10 10 10 10 10 10 8 8 8 8 7 7 7 6 4 4 5 7 6 6 7 6 6 6 7 7 11 15 14 14 14 14 13 10 9 6 5 4 3 4 6 7 7 7 7 5 4 4 5 6 3 2 2 2 3 7 8 7 7 8 7 6 6 6 6 5 5 5 4 4 5 4 4 4 5 5 6 6
6 6 7 8 9 9 10 10 11 10 10 9 9 8 8 7 7 7 7 7 7 7 7 6 6 6 6 6 7 6 6 6 7 7 8 9 9 12 12 13 11 11 9 6 7 9 10 11 10 10 9 7 6 6 6 6 10 11 9 8 8 7 6 7 7 7 6 6 6 6 5 5 4 4 5 6 7 6 3 2 4 4 4 5 7
7 6 6 6 8 9 10 9 9 10 10 9 8 8 8 7 8 8 7 7 7 8 8 8 8 8 7 6 5 5 5 5 5 4 5 5 5 6 7 7 9 10 8 7 8 7 9 8 7 8 6 8 8 8 9 9 10 10 8 7 7 7 7 6 6 6 4 5 5 5 4 4 3 7 7 7 7 6 5 3 5 4 5 5 7
9 8 8 6 7 8 9 10 10 8 9 9 9 8 8 8 8 8 7 6 6 7 7 8 7 6 7 6 5 5 5 4 5 5 5 4 4 4 5 5 6 5 5 6 6 5 5 7 12 11 11 11 10 9 8 8 8 8 7 6 6 6 6 6 6 5 4 3 4 4 5 6 7 6 6 7 6 6 5 6 5 5 5 4 4
7 8 8 7 7 7 7 7 7 8 8 9 8 7 6 6 6 6 6 4 4 4 7 7 5 4 5 5 6 6 4 4 2 1 1 3 4 5 6 6 5 5 6 8 5 5 9 11 10 11 10 9 9 9 8 8 7 8 8 7 6 6 6 6 7 6 5 6 6 6 6 6 6 6 6 7 7 7 6 6 6 6 6 7 6
5 6 6 6 5 5 5 5 6 6 6 6 6 7 10 11 7 5 5 8 11 10 6 5 4 4 7 5 2 5 5 1 2 2 2 1 2 3 2 3 3 3 7 7 2 9 9 10 8 8 9 8 9 8 8 7 8 8 8 8 8 7 6 6 6 5 6 6 6 6 6 6 6 6 6 6 5 6 6 6 4 4 6 5 5
5 5 6 5 5 6 5 6 5 5 5 5 5 5 5 6 9 9 7 6 7 8 9 9 8 6 6 6 4 6 5 3 1 2 2 2 1 2 2 2 3 4 6 5 9 10 9 9 8 8 7 8 8 7 7 7 7 7 7 6 7 6 5 5 4 3 6 6 6 5 5 5 5 5 5 5 5 5 5 5 5 6 5 4 5
4 4 3 3 3 5 5 6 6 5 5 4 5 5 5 5 5 6 7 8 8 8 9 9 9 9 8 5 4 1 1 1 2 3 3 2 1 2 3 4 3 3 3 3 10 8 8 8 8 7 7 8 7 6 6 6 6 6 6 7 6 6 5 5 2 3 5 6 5 5 5 5 6 5 5 4 4 5 5 5 6 5 4 4 4
5 6 7 7 7 8 8 6 4 6 5 4 5 5 4 3 5 3 4 4 4 5 7 7 7 6 6 6 4 4 2 2 5 6 7 8 7 5 6 6 5 2 6 10 9 8 7 7 7 6 7 7 6 6 5 6 6 6 5 5 6 6 5 3 2 5 5 5 4 4 4 4 5 5 4 5 5 5 5 5 5 5 5 4 5
6 6 5 5 6 6 6 6 7 4 3 5 7 6 4 4 4 3 4 3 4 4 3 5 4 3 3 2 2 1 3 7 8 9 9 10 8 9 10 8 8 8 12 9 9 8 7 7 6 6 6 6 6 6 6 6 6 6 6 6 6 5 5 4 5 5 6 4 4 3 4 4 3 5 4 5 4 3 5 3 3 4 3 3 2
5 7 10 7 5 5 6 5 5 5 5 4 2 5 6 4 5 5 4 5 6 5 3 3 4 3 3 4 5 7 8 7 7 7 8 10 9 11 13 12 11 9 9 8 7 7 7 7 7 6 6 6 6 6 7 6 6 7 6 6 6 6 6 7 6 5 5 5 5 5 4 4 4 4 4 3 2 3 2 1 1 1 2 2 2
4 5 5 5 4 4 5 5 6 5 5 4 3 2 5 7 4 5 3 2 4 5 3 1 1 4 4 3 5 4 4 8 11 14 15 14 11 13 10 8 8 8 7 7 7 6 6 6 7 7 6 6 6 7 6 7 6 5 5 5 6 5 6 6 5 5 4 5 4 4 4 4 2 2 2 2 2 2 2 2 2 2 1 1 2
4 4 5 5 5 3 4 6 6 7 6 3 2 2 2 4 6 7 5 5 4 3 4 2 2 2 3 1 3 7 12 11 13 15 15 14 14 10 8 8 7 8 7 7 7 7 7 6 6 6 6 6 6 5 6 6 5 5 5 5 5 6 5 5 5 4 5 5 4 4 4 3 3 3 3 3 3 3 3 3 2 2 2 3 3
3 3 4 5 5 4 4 5 6 6 7 5 3 3 4 4 6 5 6 6 5 5 5 3 4 3 2 2 5 5 4 9 15 12 11 11 9 7 7 7 7 8 7 7 7 7 7 6 6 6 5 6 6 6 6 6 6 6 6 4 5 5 5 5 4 4 3 4 4 3 3 3 3 3 3 2 2 3 4 4 4 5 5 5 2
3 3 4 7 5 4 3 5 6 7 7 7 7 7 7 7 6 6 6 7 5 4 4 3 2 2 3 3 5 4 7 7 7 6 6 7 7 8 8 8 8 7 7 6 7 6 6 6 5 6 5 5 6 5 6 4 5 4 4 4 5 6 6 5 5 4 4 3 2 2 3 3 4 3 2 3 4 4 4 4 5 5 6 5 5
1 2 1 4 3 2 4 4 4 6 6 6 7 6 7 6 3 6 7 7 5 4 4 4 4 2 0 1 6 7 7 6 5 4 5 7 8 8 8 7 7 7 7 6 7 6 6 6 6 6 5 4 5 5 4 4 4 3 3 5 5 5 5 3 4 3 3 3 3 4 4 4 4 3 3 4 4 3 4 4 4 4 4 4 5
3 3 2 1 1 4 5 4 3 3 3 4 3 5 5 5 3 5 5 6 6 5 5 4 4 3 3 4 7 7 8 6 5 5 6 7 7 7 7 6 6 6 6 6 6 6 6 5 5 5 5 5 4 4 4 4 3 3 4 3 3 4 4 4 4 3 3 4 4 5 5 6 4 3 4 3 4 5 4 3 4 5 5 4 4
3 3 1 1 4 5 4 4 3 2 3 3 5 6 6 6 5 4 6 4 5 6 6 3 1 1 4 10 6 7 7 7 5 6 8 7 7 6 6 6 6 6 6 5 5 6 6 5 6 5 4 4 5 3 3 2 3 5 3 4 5 6 6 6 6 6 6 5 5 5 6 6 5 3 0 1 3 3 3 3 4 5 5 4 4
3 0 2 2 6 6 5 4 3 3 3 2 3 4 4 5 6 4 5 6 5 5 4 3 2 2 3 6 7 8 6 6 6 7 7 7 7 6 7 7 6 5 5 5 4 6 7 6 5 5 4 4 3 3 5 5 4 5 5 5 5 5 5 5 6 7 6 6 6 6 6 6 5 4 1 1 2 4 3 3 4 3 3 3 3
5 4 3 0 6 5 4 4 3 2 2 2 1 2 3 4 5 3 1 5 3 3 5 3 2 0 1 3 6 7 7 7 7 7 7 7 7 7 6 5 6 6 6 6 5 5 6 6 5 4 4 6 6 6 6 5 5 5 5 5 4 4 4 4 4 5 5 5 5 6 6 6 5 6 5 5 6 5 5 4 4 4 3 4 4
4 4 4 1 4 6 5 3 4 4 3 2 1 2 4 5 4 4 2 5 6 4 3 3 2 1 2 6 7 7 6 7 7 7 7 7 6 6 5 6 6 5 5 5 5 4 4 4 5 5 6 6 6 6 6 6 5 5 4 5 4 5 3 3 2 3 3 3 4 5 6 5 4 4 4 5 4 4 4 3 4 5 4 4 4
4 5 4 2 5 6 6 5 5 4 4 3 1 3 3 2 1 2 2 3 5 5 4 3 2 1 7 6 7 7 7 7 7 7 7 6 6 6 6 6 6 5 5 4 4 4 5 4 5 6 6 5 5 6 5 5 5 5 4 4 3 2 1 2 2 3 4 3 4 4 5 4 4 3 4 2 1 2 2 2 2 2 2 4 5
2 5 4 5 1 6 6 6 6 6 4 3 4 6 4 3 1 4 4 2 1 4 6 5 4 7 6 6 7 7 7 7 7 7 6 6 5 5 4 6 6 5 6 3 3 4 4 5 5 6 5 5 5 5 5 5 4 4 3 3 2 3 3 3 3 3 3 3 3 3 4 4 3 4 6 5 6 6 4 3 2 2 4 4 4
3 3 5 4 6 2 6 7 7 6 6 6 7 6 4 3 3 2 1 2 2 1 2 3 6 6 7 7 7 7 7 7 7 7 6 6 5 6 6 6 6 6 5 4 3 4 5 5 5 5 5 5 5 4 4 4 4 3 3 3 3 3 5 5 3 3 3 3 3 3 3 3 3 4 4 4 4 5 5 6 4 5 5 5 6
2 3 5 5 4 1 5 5 6 7 7 7 7 5 4 4 4 4 4 4 3 3 4 4 3 4 6 7 7 6 5 6 7 7 6 5 5 4 4 5 5 6 6 6 4 4 4 5 6 6 6 5 5 4 4 4 3 3 3 3 4 6 6 6 4 4 5 3 3 4 3 4 4 4 4 4 4 3 3 4 4 4 4 5 5
4 4 4 3 1 3 0 5 5 4 4 5 6 5 7 7 5 4 4 4 4 4 5 6 7 7 7 6 7 7 7 7 7 7 7 6 5 5 5 5 5 5 6 6 5 4 4 5 5 5 5 4 4 4 4 3 3 2 2 2 5 6 6 7 5 6 6 4 4 3 3 3 4 4 4 4 4 4 5 4 4 5 4 5 5
4 4 4 2 2 2 3 3 3 4 6 6 7 6 6 6 5 4 4 4 5 6 6 5 7 6 6 7 7 8 8 8 8 8 7 7 6 5 5 5 6 5 5 6 5 5 4 5 5 6 5 4 4 4 3 3 3 2 3 4 5 6 7 7 5 7 8 6 4 3 2 3 4 5 5 5 4 5 5 4 4 4 4 4 4
Wind_Direction
184 178 149 137 165 194 161 158 215 211 171 196 199 165 149 130 129 135 128 129 127 125 124 127 124 118 121 130 137 140 120 132 136 137 135 140 144 156 150 143 142 153 150 154 152 140 139 129 134 156 159 161 184 157 160 183 173 156 182 169 164 156 136 121 122 119 58 121 141 151 155 139 145 150 146 152 148 141 135 133 141 152 150 151 146
260 178 141 153 181 191 173 160 203 196 186 177 159 153 132 130 134 125 130 138 130 132 131 128 124 128 135 146 146 130 130 142 148 128 135 138 156 163 145 142 137 148 149 151 156 146 129 126 140 156 152 160 151 206 188 192 168 158 159 158 159 162 150 104 134 119 136 115 120 132 148 156 142 172 156 159 168 146 140 150 161 179 161 161 165
60 42 49 124 195 182 182 170 189 187 169 161 144 128 108 123 125 125 130 137 130 129 135 135 132 137 133 141 141 133 144 157 129 130 150 144 124 100 114 128 139 149 143 148 151 138 128 136 158 165 145 154 211 236 239 177 207 165 151 156 158 154 119 126 120 116 141 172 170 151 162 167 163 178 179 169 165 159 155 168 174 191 177 176 190
123 121 124 161 296 261 192 193 183 165 151 141 134 128 138 134 122 124 130 132 121 128 131 136 132 140 133 137 154 145 152 131 137 148 131 117 127 125 116 124 124 127 138 137 140 139 144 144 166 168 156 173 256 256 180 170 101 102 115 119 123 114 109 120 130 131 158 145 192 166 176 160 188 173 168 165 160 168 171 172 174 187 188 187 197
165 153 136 147 170 216 188 137 151 177 167 137 131 135 144 126 123 131 132 126 117 134 125 121 123 132 136 143 154 137 153 126 133 115 100 136 136 133 127 117 115 110 115 133 134 134 140 155 160 141 134 173 246 274 45 32 109 133 123 127 123 129 112 120 140 141 143 154 176 210 173 169 167 168 169 165 169 167 169 172 184 192 198 198 200
165 153 140 145 174 181 181 149 135 117 169 139 140 142 133 124 127 132 129 122 123 130 129 127 124 134 137 151 139 147 151 132 131 133 107 101 107 119 125 119 112 119 107 112 127 131 144 155 143 118 150 170 148 102 81 79 75 82 99 114 123 110 115 134 130 109 139 178 157 170 201 163 142 174 183 178 169 166 180 193 194 200 199 202 211
170 150 154 163 158 162 159 156 155 152 190 135 130 130 127 126 128 134 128 118 116 136 116 131 133 137 144 123 91 77 52 40 42 78 96 90 91 116 128 135 134 144 131 131 128 125 133 147 132 149 136 113 88 83 91 75 83 72 87 106 112 103 98 121 139 156 176 183 163 175 191 219 154 179 196 190 184 175 175 177 210 213 208 204 211
158 159 155 152 150 153 130 74 55 160 156 127 120 125 121 120 123 120 120 115 121 127 133 137 149 93 80 79 74 71 62 42 32 20 37 83 91 87 107 122 129 141 152 143 137 129 116 95 97 94 84 79 97 83 76 83 60 59 17 90 113 105 91 70 89 104 136 159 150 157 230 216 173 43 176 155 184 248 205 182 195 203 212 215 214
145 147 144 156 157 142 112 114 112 221 154 108 118 119 115 113 109 113 117 117 110 129 140 112 87 88 81 82 79 70 61 49 30 10 12 45 49 85 91 99 109 118 107 98 100 99 93 90 80 75 80 79 75 77 65 72 92 72 38 60 60 79 74 70 91 102 97 110 87 97 92 67 223 111 142 188 200 206 207 187 213 211 209 209 228
142 141 138 136 143 130 107 120 126 128 90 120 126 123 116 115 117 121 112 102 102 97 82 85 101 97 92 79 76 70 62 53 28 15 357 66 54 40 51 90 96 105 102 105 101 98 99 93 85 84 77 73 76 75 73 76 76 86 95 80 88 88 89 74 54 65 97 96 120 112 43 335 282 279 163 191 191 43 281 203 228 236 272 268 278
136 131 121 119 116 94 92 91 87 118 140 141 130 112 121 118 101 75 68 74 75 73 78 83 84 85 85 86 74 68 60 38 16 27 43 49 59 66 65 32 45 108 110 112 118 106 88 78 75 70 67 52 47 63 92 97 98 96 91 92 92 102 98 80 76 79 82 95 91 101 154 210 241 214 231 187 175 174 193 194 197 223 187 198 234
94 76 100 94 100 102 100 86 64 51 16 107 122 126 112 97 89 85 83 79 80 82 80 83 83 85 86 80 75 63 63 22 17 29 44 50 49 63 65 62 52 42 57 75 77 73 79 74 66 67 56 46 49 56 44 45 79 89 89 82 75 64 73 114 127 74 105 98 65 226 176 223 246 241 242 228 233 229 197 178 205 183 199 222 219
50 78 83 99 100 97 97 93 83 66 17 15 94 96 97 99 101 92 86 86 81 79 83 79 75 77 82 81 74 59 47 16 15 19 36 50 41 51 63 67 70 68 66 73 81 86 90 90 89 79 73 54 37 10 34 64 71 96 100 93 76 80 70 53 38 122 158 138 169 219 194 192 294 272 217 228 188 203 275 231 223 214 220 226 241
48 64 76 83 93 97 98 95 84 75 65 34 72 88 87 84 87 93 89 79 78 79 73 73 70 65 69 81 80 63 47 9 13 13 19 55 45 49 62 70 80 83 84 86 88 88 81 89 93 88 76 64 53 16 350 2 9 39 44 54 71 84 88 106 108 80 126 162 171 238 241 194 236 222 230 204 172 216 178 288 328 321 259 227 215
42 39 54 61 86 104 99 95 96 85 74 70 75 77 87 88 80 79 80 80 79 75 75 73 69 72 69 75 73 57 37 12 23 16 11 27 50 68 61 74 86 84 83 81 83 92 98 94 88 89 87 79 72 58 345 343 350 40 43 16 15 18 27 53 85 211 214 195 182 206 246 242 215 192 192 63 123 72 28 2 324 306 283 301 332
30 33 37 35 47 89 106 106 103 97 88 65 71 82 72 75 83 84 85 82 82 82 72 71 70 66 61 64 66 53 27 19 25 19 11 2 23 58 71 93 97 95 82 76 68 54 60 79 84 67 55 43 40 72 347 281 34 66 34 353 350 344 332 142 270 257 247 246 243 243 241 227 215 223 245 273 291 113 208 275 275 265 267 258 248
25 25 30 35 29 59 74 94 102 103 96 89 72 77 77 69 59 76 83 81 80 74 73 66 64 71 68 62 66 54 34 16 22 19 12 359 35 58 83 89 88 82 73 65 60 54 50 57 70 81 76 68 10 34 8 23 64 54 33 348 338 340 333 357 1 318 267 253 247 254 248 244 236 235 236 233 214 206 154 203 256 246 252 251 255
23 28 25 24 38 37 54 65 79 81 84 85 80 76 84 75 71 64 82 82 73 69 80 77 65 66 70 67 65 67 44 21 24 24 28 29 48 70 82 92 88 84 77 59 62 65 53 56 75 76 71 49 17 37 34 65 77 64 41 10 341 344 338 346 347 340 327 272 270 260 261 259 254 260 258 256 239 166 167 214 229 211 242 231 254
20 24 20 22 37 43 55 59 66 73 74 73 78 83 81 84 83 79 82 85 85 88 80 80 76 65 64 71 63 66 56 34 34 43 44 42 52 52 63 78 86 87 95 86 74 72 57 46 52 61 75 77 48 40 32 45 80 62 54 59 26 349 314 332 336 337 334 336 322 312 281 256 252 250 257 250 242 209 208 224 237 223 243 255 252
12 23 28 27 32 38 39 55 54 69 84 84 82 79 88 85 86 90 83 87 90 86 81 82 84 76 73 73 69 68 65 50 38 49 49 48 52 67 55 68 78 104 97 82 71 64 66 59 48 59 75 72 64 54 43 38 65 40 33 61 16 320 349 335 313 318 311 307 303 306 296 301 268 225 242 229 232 231 243 252 220 210 220 213 182
5 22 29 32 38 36 27 47 61 56 62 78 88 89 86 97 99 101 101 97 101 95 96 98 91 85 74 72 75 63 68 68 46 49 53 52 51 60 58 52 51 77 86 80 76 74 68 65 74 82 100 111 107 96 88 56 27 22 59 114 237 317 338 319 317 332 322 318 317 315 316 326 323 323 331 348 355 13 23 20 15 28 79 82 47
15 22 24 25 28 36 38 35 46 49 48 49 66 84 95 101 101 103 109 112 107 104 105 106 102 94 81 75 75 72 60 61 61 46 50 54 54 54 58 45 34 81 87 91 85 75 70 62 50 30 36 48 54 56 62 55 22 13 13 25 351 343 326 316 308 316 323 333 339 346 349 355 360 38 45 42 36 39 51 47 50 57 44 51 64
31 32 23 24 30 38 39 39 39 41 42 37 39 40 33 50 73 102 116 116 112 114 110 106 100 95 90 79 76 72 62 55 45 45 40 48 55 59 58 53 45 62 78 75 71 82 93 65 43 18 10 4 15 21 28 20 77 303 150 359 322 310 318 316 317 324 340 346 356 354 348 353 359 11 61 82 76 79 75 71 71 72 68 64 64
34 40 27 23 32 36 37 40 39 37 42 51 56 51 46 51 44 20 28 84 116 120 116 109 103 103 99 86 71 65 58 57 42 40 42 42 48 55 55 55 61 76 72 71 46 35 20 9 354 347 345 339 351 5 10 23 17 348 196 281 328 340 333 340 359 18 36 34 30 23 17 4 10 3 3 101 96 85 78 78 79 78 86 81 75
39 44 42 37 37 37 40 41 38 36 37 42 48 45 46 45 52 32 43 47 53 76 91 110 113 109 97 97 84 60 43 43 40 27 30 34 39 44 46 48 56 65 59 38 30 22 353 349 345 354 339 332 5 35 47 45 33 73 53 3 355 28 35 45 44 44 40 27 21 18 19 18 13 7 13 34 50 59 71 60 78 84 91 87 78
38 43 46 47 44 46 48 42 39 35 36 37 44 46 46 43 50 41 47 51 58 69 65 65 82 100 97 75 64 56 40 41 35 26 20 23 28 28 39 39 36 50 57 40 8 5 5 357 352 354 351 359 15 17 9 6 17 41 60 64 61 61 59 56 50 52 42 19 24 22 2 359 23 28 39 44 47 15 5 71 68 33 45 74 72
21 27 45 56 55 53 53 48 44 37 33 31 34 38 40 42 47 45 44 43 50 59 59 65 71 80 87 83 77 69 59 46 35 31 25 16 21 19 27 28 25 28 29 10 3 0 349 349 335 336 351 19 56 60 48 37 40 41 50 54 58 62 61 61 63 65 46 34 23 21 8 352 355 36 33 41 39 17 8 40 61 32 50 65 77
19 12 15 36 63 62 61 55 55 52 41 38 31 24 34 42 47 43 34 30 55 61 69 67 72 82 92 92 89 71 63 50 21 9 9 14 5 22 34 41 31 19 15 9 357 342 348 23 41 47 48 47 37 36 33 37 41 39 39 44 54 60 72 81 68 57 43 40 29 14 16 23 36 19 26 40 33 17 13 49 48 48 33 42 53
13 11 12 16 44 67 65 60 63 64 63 56 52 36 20 28 52 56 31 23 33 88 96 84 85 93 99 113 110 88 67 70 89 208 314 7 28 19 23 18 5 15 10 357 350 22 52 51 47 44 47 48 43 37 30 31 30 35 35 25 25 39 46 47 52 41 27 42 40 36 30 33 35 26 41 46 30 20 5 42 38 58 49 60 72
40 24 14 22 23 68 97 85 77 70 64 71 76 59 45 50 35 49 54 26 46 46 64 99 122 106 92 52 65 114 115 147 201 220 231 108 68 56 45 26 17 356 349 350 53 67 61 63 51 51 47 47 46 37 29 29 29 27 28 24 26 30 37 45 57 61 50 53 45 51 41 50 43 36 50 51 34 30 20 43 41 48 67 59 66
16 8 12 16 29 46 86 117 110 94 93 87 70 69 61 39 48 53 51 44 46 55 70 79 73 68 99 97 48 71 115 134 206 268 280 279 171 151 110 51 52 32 4 38 64 65 67 64 54 52 49 53 50 38 31 33 26 30 29 35 35 29 24 36 38 72 73 70 59 60 57 60 52 37 44 27 29 23 27 24 45 47 66 67 69
57 20 356 343 18 58 67 83 115 124 111 91 84 89 84 76 42 26 48 39 27 37 41 48 58 66 71 96 114 2 281 250 291 311 332 31 42 118 133 130 108 72 30 71 79 66 70 73 64 56 53 54 44 40 37 36 28 32 29 42 28 18 27 27 1 71 79 73 68 63 60 55 56 50 53 50 55 44 31 33 32 34 27 32 43
49 48 52 47 45 34 26 18 60 104 118 125 118 110 101 92 86 53 10 33 74 62 46 45 49 63 78 69 78 115 138 329 352 6 1 2 5 33 105 124 113 125 80 69 81 77 69 73 70 63 59 56 44 46 37 37 35 34 44 51 37 8 19 4 52 66 70 79 81 70 61 61 62 60 49 42 48 47 32 37 24 39 36 36 17
36 29 42 65 58 48 40 38 26 20 72 115 141 141 141 139 134 122 98 62 31 29 32 45 54 50 63 111 138 127 22 22 15 3 353 348 8 27 52 82 93 80 80 85 78 78 77 73 72 74 70 65 53 43 38 33 29 34 38 43 40 29 20 7 52 59 65 54 59 49 47 50 61 71 49 37 36 51 47 27 36 50 34 41 27
53 46 48 47 47 43 57 45 43 42 20 359 19 127 149 160 148 130 118 107 98 93 69 12 12 37 26 25 36 32 28 14 2 10 46 80 87 83 75 62 60 50 56 66 78 81 81 79 77 74 75 66 51 48 41 33 33 36 40 37 36 34 29 32 37 51 60 60 57 55 58 64 61 75 91 87 63 49 41 40 21 90 74 360 9
55 72 62 55 46 42 47 47 34 27 8 333 315 323 138 155 150 156 157 149 141 130 95 54 334 335 360 33 59 42 28 33 42 50 57 60 65 73 74 73 69 68 73 64 73 68 74 83 84 80 80 72 63 54 49 45 39 39 37 46 42 42 41 37 36 46 51 60 56 57 57 49 60 86 75 63 54 34 3 347 354 2 14 330 317
51 41 51 53 62 50 42 38 33 11 2 334 356 10 25 96 134 152 168 143 131 101 111 85 52 21 8 49 47 40 37 43 55 56 55 57 64 72 87 92 96 82 78 73 68 61 57 48 67 74 72 70 65 69 62 54 46 45 37 41 39 43 38 46 45 51 52 49 37 37 44 34 27 30 68 56 12 7 348 338 353 337 328 299 339
73 74 59 64 75 57 42 39 19 15 12 358 7 50 56 54 50 84 118 119 132 128 111 71 66 74 56 336 31 56 37 51 56 48 38 39 43 55 64 69 75 84 84 79 75 74 65 55 55 72 77 78 73 69 69 56 51 49 46 38 38 35 38 40 35 41 43 57 46 37 35 26 23 25 24 25 356 347 337 327 337 340 336 312 277
38 330 82 80 75 93 65 33 25 24 17 11 9 31 26 24 46 60 95 136 125 102 99 102 68 53 51 42 25 67 74 50 67 64 54 52 50 58 66 67 70 70 75 79 81 75 73 65 57 59 65 76 80 78 79 66 55 52 45 48 41 40 37 32 31 22 26 24 24 16 23 2 349 347 10 13 337 318 320 326 339 354 353 341 352
281 292 49 85 67 82 90 69 53 43 22 24 12 19 26 16 32 70 77 100 107 111 114 108 103 91 285 27 85 90 91 98 90 89 75 66 66 66 73 75 76 82 87 85 86 88 77 67 61 58 56 59 77 87 87 88 77 63 54 50 50 42 37 45 41 45 34 20 16 354 354 340 341 337 344 346 322 317 308 320 1 4 354 353 19
209 235 212 67 121 120 78 67 59 60 39 23 17 23 22 13 11 58 75 108 117 129 134 144 159 174 161 133 118 121 121 121 110 95 83 78 80 81 77 79 83 77 76 87 89 92 92 76 61 63 58 61 72 91 105 100 90 73 61 50 50 41 31 18 12 10 18 22 8 356 342 334 338 13 13 11 35 40 18 35 44 30 14 18 29
158 217 223 170 131 119 119 114 104 56 36 30 22 21 2 358 337 43 74 101 127 124 116 110 110 170 117 103 116 143 121 137 124 100 82 81 83 81 83 78 75 78 77 82 94 91 81 73 60 57 53 40 58 73 78 85 97 89 73 49 36 29 28 22 16 11 7 6 3 358 348 339 320 318 330 62 74 53 44 36 50 38 20 10 12
74 269 254 158 119 147 143 162 136 113 90 55 20 360 13 13 345 347 83 112 122 116 114 106 67 23 36 59 82 93 101 99 100 102 99 98 94 92 88 87 83 80 77 78 86 98 92 85 76 66 61 42 33 60 84 83 77 60 51 55 51 49 36 24 18 10 1 2 357 352 345 339 341 332 110 75 53 71 53 45 41 32 9 9 9
325 333 336 222 120 123 140 139 130 134 136 147 316 330 343 325 335 300 128 103 113 128 133 144 155 14 360 39 100 98 107 109 108 110 111 107 105 105 108 102 88 75 69 67 71 82 85 80 76 67 55 42 48 58 63 62 72 76 76 76 59 48 36 30 15 2 353 347 353 354 347 346 3 22 12 11 19 27 25 20 18 9 6 1 13
306 302 334 69 125 130 162 138 131 150 157 147 202 263 289 292 287 238 150 106 126 151 166 179 191 151 68 50 75 86 92 101 109 111 110 111 111 113 113 110 104 98 88 82 85 88 88 88 82 75 64 56 59 66 63 59 60 64 65 75 77 53 25 356 327 313 327 357 359 355 346 346 355 37 45 41 52 57 35 17 26 9 355 354 1
308 298 303 327 120 156 155 165 161 174 168 175 235 292 286 295 93 126 147 117 126 153 177 197 209 100 98 113 106 100 105 107 111 114 112 113 115 120 123 122 122 116 116 112 100 98 102 102 91 87 83 77 69 68 65 68 68 65 61 57 62 53 354 308 293 334 4 6 347 342 330 334 330 24 40 45 36 59 44 358 7 8 1 344 329
295 300 288 289 245 169 184 171 163 183 193 193 197 227 248 269 268 121 118 103 147 178 176 181 149 135 137 134 131 134 135 128 123 117 118 120 115 111 110 117 116 116 114 109 106 102 98 98 98 96 95 93 87 81 75 71 68 71 68 60 46 21 3 346 336 356 345 325 322 343 350 354 342 5 6 4 359 353 350 340 325 327 326 327 322
280 287 294 275 266 182 173 160 188 189 187 194 207 211 219 207 211 214 181 209 210 156 231 205 161 147 137 148 149 147 147 140 129 126 127 124 123 118 119 126 131 131 125 113 107 99 96 101 102 97 93 89 89 88 85 77 69 65 56 42 29 15 357 348 344 355 340 334 331 337 350 21 18 20 14 22 15 11 15 357 344 347 340 331 327
264 288 292 280 274 197 163 198 182 186 185 189 189 199 197 194 208 208 207 210 228 212 212 198 174 157 147 151 155 154 132 120 127 135 132 136 130 129 120 121 135 142 132 133 125 113 110 107 109 109 108 103 103 100 96 85 71 55 44 31 7 2 6 359 358 355 346 343 340 341 360 31 30 12 11 16 7 3 357 343 355 346 341 337 333
261 268 269 280 353 327 269 194 215 195 185 191 186 190 163 182 196 205 222 243 254 247 230 173 166 172 166 150 134 141 146 147 147 147 152 151 151 145 125 107 118 147 148 146 147 144 128 119 119 120 116 117 114 109 107 99 92 77 46 12 7 7 5 3 1 359 358 348 335 323 324 13 25 11 2 357 359 358 354 336 333 338 342 337 330
276 274 275 286 308 321 337 314 248 205 179 190 194 186 177 181 188 212 222 218 231 243 234 144 146 156 160 162 158 152 153 151 155 153 155 162 164 149 134 134 132 133 138 146 150 154 148 136 130 126 127 125 125 126 124 127 129 112 59 35 21 13 9 7 357 345 346 348 326 319 336 15 24 6 358 355 359 1 347 342 350 352 340 335 331